Regional Weather Roundup
Issued by NWS Newport/Morehead, NC

Current Version | Previous Version | Text Only | Print | Product List | Glossary On
Versions: 1 2 3 4 5 6 7 8 9 10 11 12 13 14 15 16 17 18 19 20 21 22 23 24 25 26 27 28 29 30 31 32 33 34 35 36 37 38 39 40 41 42 43 44 45 46 47 48 49 50
000
ASUS42 KMHX 170225
RWRMHX
WEATHER ROUNDUP FOR EASTERN NORTH CAROLINA
NATIONAL WEATHER SERVICE NEWPORT/MOREHEAD CITY NC
1000 PM EDT MON OCT 16 2017

NOTE: "FAIR" INDICATES FEW OR NO CLOUDS BELOW 12,000 FEET
WITH NO SIGNIFICANT WEATHER AND/OR OBSTRUCTIONS TO VISIBILITY

NCZ015>017-031-032-045>047-102-103-170300-
NORTH COAST

CITY           SKY/WX    TMP DP  RH WIND       PRES   REMARKS
EDENTON        CLEAR     57  51  80 CALM      30.18R
ELIZABETH CITY MOCLDY    59  51  75 N13       30.16R
KITTY HAWK     CLOUDY    62  47  58 N12G28    30.12R
MANTEO         CLOUDY   N/A N/A N/A N24G33    30.13R

$$

NCZ045>047-081-094-103-104-170300-
CENTRAL COAST

CITY           SKY/WX    TMP DP  RH WIND       PRES   REMARKS
FRISCO         CLOUDY    65  55  70 NE12G31   30.09R

$$

NCZ095-097-098-100-101-170300-
SOUTHERN COAST

CITY           SKY/WX    TMP DP  RH WIND       PRES   REMARKS
BEAUFORT       CLOUDY    60  48  64 N18G28    30.11R
CEDAR ISLAND   NOT AVBL
JACKSONVILLE   CLOUDY    59  55  87 N9        30.14R
PINEY ISLAND     N/A    N/A N/A N/A N25G31    30.11R
WILMINGTON     CLOUDY    60  51  72 N14       30.14R


$$

NCZ011>013-027>030-043-044-078>080-089-090>093-098-170300-
COASTAL PLAIN

CITY           SKY/WX    TMP DP  RH WIND       PRES   REMARKS
AHOSKIE        CLEAR     49  47  92 CALM      30.20R
CLINTON        CLEAR     57  56  99 N3        30.19R
ELIZABETHTOWN  NOT AVBL
GOLDSBORO      CLEAR     57  53  85 N9        30.17R
GREENVILLE     CLEAR     52  50  93 N6        30.20R
HAVELOCK       CLOUDY    61  54  77 N15       30.14R
KENANSVILLE    MOCLDY    57  54  88 N7        30.18R
KINSTON        MOCLDY    57  52  82 N8        30.18R
NEW BERN       CLOUDY    60  54  80 N13       30.16R
RICHLANDS      CLOUDY    58  54  86 N9        30.16R
ROCKY MOUNT    CLEAR     53  50  89 N6        30.20R
WASHINGTON     MOCLDY    57  50  75 N8        30.18R
WHITEVILLE     CLOUDY    59  54  82 N5        30.16R

$$

AMZ130-135-150-152-154-156-158-170-250-252-270-ANZ085-086-088-633-658-670-170300-
MARINE OBSERVATIONS

STATION/POSITION TIME  TEMP    WIND        PRES    WAVE   SWELL
                       AIR SEA DIR/SP/G            HT/PER HT/PER
                 (UTC) (F)     (DEG/KT/KT) (MB)    (FT/S) (FT/S)
CHESAPEAKE LIGHT NOT AVBL
64 E VA BEACH    0150   63 69  360/ 23/ 29 1019.6    8/ 7   2/12
DUCK             0200   64 71   20/ 30/ 38 1019.6
2 E DUCK         0200      72                N/A     8/ 7   2/11
OREGON INLET     0200   63 73  350/ 17/ 23 1019.4
13E OREGON INLT  0148      73                N/A     9/ 7   3/12
HATTERAS CG      0200   66 75   10/ 29/ 33 1018.7
DIAMOND BUOY     0150   68 82   10/ 29/ 33 1016.8    8/ 7   2/11
CAPE LOOKOUT     0200   61     360/ 23/ 27 1019.2
BEAUFORT LAB     0200   62 76   10/ 17/ 26 1020.1
30 SE NEW RVR IN 0108   64      20/ 27/ 37 1018.0
30 SE NEW RVR IN NOT AVBL
27 SE WRIGHTSVLE 0208   64 78   50/ 25/ 37 1018.7
5 SE WRIGHTSVLE  0108   65 77   40/ 17/ 41 1019.4
225 S CAPE HAT   0150   78 80   CALM  /  2 1014.6    4/10   3/10
41 SE CHARLESTON 0210   70 81   20/ 29/ 35 1017.7

$$




USA.gov is the U.S. government's official web portal to all federal, state and local government web resources and services.